TEVEL2-4

Last updated on Wed Sep 09 2026 00:03:15 GMT+0000 (Coordinated Universal Time)

1 63213U 25052D 26251.43952284 .00020781 00000+0 56939-3 0 9994 2 63213 97.3778 148.0794 0003648 131.3759 228.7800 15.37328209 82895
UTC large
Height (km)
Speed (km/s)
/
Latitude / Longitude
Inclination (degrees)
Orbital Period (minutes)
Azimuth
Elevation
Range (km)
Doppler Factor

Next 0 passes for location: London (51.5072 / 0.1276)

No passes found over London.
TEVEL2-4